Location: Ammerl�gen
(47.2167°N, 9.6000°E)
Time: 10:52:13
(UTC+00:00)

Cosmos 1603 - Pass Details

Date: 21 April 2021
Orbit: 830 x 860 km, 71.0° (Epoch: 06 May)

Event Time Altitude Azimuth Distance (km) Brightness Sun altitude
Rises 21:00:20 0° 336° (NNW) 3,440 8.2 -22.9°
Reaches altitude 10° 21:02:57 10° 343° (NNW) 2,496 7.1 -23.2°
Maximum altitude 21:08:23 42° 54° (NE) 1,192 4.4 -23.7°
Enters shadow 21:09:37 37° 86° (E) 1,289 4.4 -23.9°
